Regional Weather Roundup
Issued by NWS

Home | Current Version | Previous Version | Text Only | Print | Product List | Glossary Off
Versions: 1 2 3 4 5 6 7 8 9 10 11 12 13 14 15 16 17 18 19 20 21 22 23 24 25 26 27 28 29 30 31 32 33 34 35 36 37 38 39 40 41 42 43 44 45 46 47 48 49 50

000
ASUS43 KDMX 301103
RWRIA

WEATHER ROUNDUP FOR IOWA
NATIONAL WEATHER SERVICE DES MOINES IA
600 AM CDT TUE AUG 30 2016

NOTE: "FAIR" INDICATES FEW OR NO CLOUDS BELOW 12,000 FEET WITH NO
SIGNIFICANT WEATHER AND/OR OBSTRUCTIONS TO VISIBILITY.

* - THESE STATIONS ARE NOT NWS STATIONS...THUS NOT UNDER NWS
QUALITY CONTROL.  THEY ALSO DO NOT REPORT WEATHER SUCH
AS PRECIPITATION OR FOG.

IAZ001>003-012>014-020>022-031>034-043>046-301200-
   NORTHWEST IOWA

CITY           SKY/WX    TMP DP  RH WIND       PRES   REMARKS
CARROLL *      CLOUDY    66  66 100 CALM      30.20R
CHEROKEE *     CLOUDY    67  67 100 CALM      30.19S
DENISON *      CLOUDY    66  66 100 CALM      30.18R FOG
LE MARS *      CLOUDY    68  66  94 N5        30.21R
ORANGE CITY *  CLOUDY    66  64  94 CALM      30.20R
SHELDON *      MOCLDY    64  64 100 CALM      30.19R
SIOUX CITY     MOCLDY    69  66  90 E3        30.18S
SPENCER        HVY RAIN  68  65  90 NE16G24   30.21R FOG
STORM LAKE *   CLOUDY    66  66 100 S5        30.20S FOG
$$

IAZ055>058-069>071-079>083-090>094-301200-
   SOUTHWEST IOWA

CITY           SKY/WX    TMP DP  RH WIND       PRES   REMARKS
ATLANTIC *     CLOUDY    68  68 100 CALM      30.18S
AUDUBON *      CLOUDY    66  64  94 CALM      30.19F
CLARINDA *       N/A     70  70 100 MISG      30.19S
COUNCIL BLFS * CLOUDY    68  68 100 NE6       30.19R FOG
CRESTON *      MOCLDY    68  68 100 NE5       30.20S
HARLAN  *      MOCLDY    68  68 100 CALM      30.22S
LAMONI         CLOUDY    69  69 100 CALM      30.18S
RED OAK *      CLOUDY    70  68  94 NE7       30.18S FOG
SHENANDOAH *   CLOUDY    68 -38   1 CALM      30.18R
$$

IAZ047>049-059>061-072>074-084-301200-
   CENTRAL IOWA

CITY           SKY/WX    TMP DP  RH WIND       PRES   REMARKS
AMES           CLOUDY    68  68 100 CALM      30.18R
ANKENY *         N/A    N/A N/A N/A MISG        N/A
BOONE *        CLOUDY    68  68 100 CALM      30.18R
CHARITON *       N/A     70  70 100 MISG      30.17S
DES MOINES     CLOUDY    71  70  96 W3        30.17R FOG
GRINNELL*      PTCLDY    66  65  95 W3        30.18R FOG
KNOXVILLE *    FOG       68  68 100 S5        30.16S VSB 3/4
MARSHALLTOWN   CLOUDY    67  67 100 CALM      30.17R
NEWTON *       PTCLDY    68  68 100 CALM      30.16S
PELLA *        PTCLDY    68  67  96 CALM      30.17S FOG
PERRY *        CLOUDY    68  68 100 CALM      30.19R FOG
$$

IAZ004>006-015-016-023>025-035-036-301200-
   NORTH CENTRAL IOWA

CITY           SKY/WX    TMP DP  RH WIND       PRES   REMARKS
ALGONA *       CLOUDY    68  68 100 N10       30.20S
ESTHERVILLE    CLOUDY    66  66 100 E10       30.21F
FORT DODGE *   CLOUDY    68  64  88 S3        30.20R
MASON CITY     CLOUDY    68  67  96 N7        30.20S
FOREST CITY *    N/A    N/A N/A N/A MISG        N/A
WEBSTER CITY * CLOUDY    68  68 100 CALM      30.17R
IOWA FALLS *   MOCLDY    68  66  96 CALM      30.20R FOG
$$

IAZ007>011-017>019-026>030-037>042-050>054-066-301200-
   NORTHEAST IOWA

CITY           SKY/WX    TMP DP  RH WIND       PRES   REMARKS
CEDAR RAPIDS   MOCLDY    69  69 100 CALM      30.16R FOG
CHARLES CITY * CLOUDY    70  70 100 CALM      30.18S
CLINTON *      CLOUDY    70  69  97 CALM      30.17S FOG
DECORAH *      MOCLDY    68  68 100 CALM      30.17S FOG
DUBUQUE        CLOUDY    69  68  96 W3        30.17S FOG
MONTICELLO *   PTCLDY    68  68 100 S3        30.16S FOG
OELWEIN *      CLOUDY    68  66  94 NW5       30.18S
WATERLOO       CLOUDY    67  65  93 CALM      30.16R
$$

IAZ064-065-067-068-078-301200-
   EAST CENTRAL IOWA

CITY           SKY/WX    TMP DP  RH WIND       PRES   REMARKS
DAVENPORT      HVY RAIN  70  69  97 SW5       30.18R VSB 3/4
IOWA CITY      CLOUDY    71  70  96 SW3       30.17S
MT. PLEASANT * PTCLDY    72  72 100 CALM      30.15S FOG
QUAD CITIES    TSTM      71  69  93 VRB7      30.18R VSB 3/4
$$

IAZ062-063-075>077-085>089-095>099-301200-
   SOUTHEAST IOWA

CITY           SKY/WX    TMP DP  RH WIND       PRES   REMARKS
BURLINGTON     CLOUDY    71  71 100 N6        30.15F
FAIRFIELD *    MOCLDY    70  68  94 CALM      30.16R FOG
FORT MADISON * PTCLDY    70  70 100 CALM      30.16S FOG
KEOKUK *       CLOUDY    70  70 100 N6        30.15R FOG
OSKALOOSA *      N/A     66  65  97 CALM      30.17S
CENTERVILLE *    N/A     68  68 100 CALM      30.18F
OTTUMWA        PTCLDY    67  66  97 W5        30.16S FOG
WASHINGTON *   CLOUDY    70  68  94 CALM      30.17R
$$

ABBREVIATIONS USED IN REMARKS
   TC - TEMPERATURES IN CELSIUS
  WCI - WIND CHILL INDEX
   HX - HEAT INDEX
  VSB - VISIBILITY
$$





USA.gov is the U.S. government's official web portal to all federal, state and local government web resources and services.